| time (UTC) | temp C | wind direction | speed KPH | gust KPH | rain 1hr cm | rain 24hr cm | rain mn cm | humidity % | barometer mb |
| 20260503183045 | 18 | 232 | 0.0 | 3.2 | 0.00 | 0.00 | 0.00 | 62 | 1019.0 |
| 20260503181616 | 20 | 231 | 1.6 | 6.4 | 0.00 | 0.00 | 0.00 | 57 | 1018.8 |
| 20260503180044 | 21 | 229 | 1.6 | 9.7 | 0.00 | 0.00 | 0.00 | 54 | 1018.8 |
| 20260503174543 | 21 | 223 | 3.2 | 8.0 | 0.00 | 0.00 | 0.00 | 54 | 1018.8 |
| 20260503173053 | 21 | 231 | 1.6 | 14.5 | 0.00 | 0.00 | 0.00 | 53 | 1018.7 |
| 20260503171542 | 22 | 249 | 1.6 | 6.4 | 0.00 | 0.00 | 0.00 | 52 | 1018.6 |
| 20260503081520 | 15 | 186 | 1.6 | 6.4 | 0.00 | 0.00 | 0.00 | 71 | 1023.2 |
| 20260503071505 | 12 | 344 | 1.6 | 8.0 | 0.00 | 0.00 | 0.00 | 75 | 1023.7 |
| 20260503070114 | 10 | 355 | 0.0 | 4.8 | 0.00 | 0.00 | 0.00 | 79 | 1023.8 |
| 20260503060109 | -17 | 0.0 | 0.0 | 0.00 | 0.00 | 0.00 | 1024.0 | ||
| 20260503054538 | 5 | 83 | 0.0 | 0.0 | 0.00 | 0.00 | 0.00 | 94 | 1023.9 |
| 20260503053042 | 5 | 171 | 0.0 | 0.0 | 0.00 | 0.00 | 0.00 | 94 | 1023.9 |
| 20260503051537 | 4 | 171 | 0.0 | 0.0 | 0.00 | 0.00 | 0.00 | 94 | 1023.9 |
| 20260503050035 | 3 | 171 | 0.0 | 0.0 | 0.00 | 0.00 | 0.00 | 93 | 1023.9 |
| 20260503044604 | 3 | 171 | 0.0 | 0.0 | 0.00 | 0.00 | 0.00 | 93 | 1023.9 |
| 20260503043033 | 3 | 171 | 0.0 | 0.0 | 0.00 | 0.00 | 0.00 | 93 | 1023.8 |
| 20260503041529 | 3 | 171 | 0.0 | 0.0 | 0.00 | 0.00 | 0.00 | 93 | 1023.8 |
| 20260503040030 | 3 | 171 | 0.0 | 0.0 | 0.00 | 0.00 | 0.00 | 92 | 1023.6 |
| 20260503034526 | -17 | 0.0 | 0.0 | 0.00 | 0.00 | 0.00 | 1023.7 | ||
| 20260503033020 | -17 | 0.0 | 0.0 | 0.00 | 0.00 | 0.00 | 1023.5 | ||
| 20260503031517 | 3 | 171 | 0.0 | 0.0 | 0.00 | 0.00 | 0.00 | 92 | 1023.5 |
| 20260503030017 | 3 | 171 | 0.0 | 0.0 | 0.00 | 0.00 | 0.00 | 92 | 1023.5 |
| 20260503024515 | 3 | 171 | 0.0 | 0.0 | 0.00 | 0.00 | 0.00 | 92 | 1023.5 |
| 20260503023014 | 3 | 171 | 0.0 | 0.0 | 0.00 | 0.00 | 0.00 | 92 | 1023.4 |
| 20260503021518 | 3 | 171 | 0.0 | 0.0 | 0.00 | 0.00 | 0.00 | 92 | 1023.5 |
| 20260503020021 | 4 | 171 | 0.0 | 0.0 | 0.00 | 0.00 | 0.00 | 92 | 1023.5 |
| 20260503014513 | 4 | 171 | 0.0 | 0.0 | 0.00 | 0.00 | 0.00 | 92 | 1023.6 |
| 20260503013010 | 3 | 171 | 0.0 | 0.0 | 0.00 | 0.00 | 0.00 | 91 | 1023.7 |
| 20260503011507 | 4 | 171 | 0.0 | 0.0 | 0.00 | 0.00 | 0.00 | 90 | 1023.6 |
| 20260503010007 | 5 | 58 | 0.0 | 0.0 | 0.00 | 0.00 | 0.00 | 91 | 1023.7 |
| 20260503004504 | 5 | 58 | 0.0 | 0.0 | 0.00 | 0.00 | 0.00 | 91 | 1023.7 |
| 20260503003004 | 5 | 58 | 0.0 | 0.0 | 0.00 | 0.00 | 0.00 | 90 | 1023.8 |
| 20260503001505 | 5 | 58 | 0.0 | 0.0 | 0.00 | 0.00 | 0.00 | 90 | 1023.7 |
| 20260503000004 | 5 | 58 | 0.0 | 0.0 | 0.00 | 0.00 | 0.00 | 90 | 1023.8 |
| 20260502234618 | 5 | 58 | 0.0 | 0.0 | 0.00 | 0.00 | 0.00 | 89 | 1023.9 |
| 20260502233057 | 6 | 58 | 0.0 | 0.0 | 0.00 | 0.00 | 0.00 | 89 | 1024.0 |
| 20260502231556 | 6 | 58 | 0.0 | 0.0 | 0.00 | 0.00 | 0.00 | 89 | 1024.0 |
| 20260502230053 | 6 | 58 | 0.0 | 0.0 | 0.00 | 0.00 | 0.00 | 86 | 1024.1 |
| 20260502224551 | 7 | 58 | 0.0 | 0.0 | 0.00 | 0.00 | 0.00 | 87 | 1024.1 |
| 20260502223100 | 7 | 58 | 0.0 | 0.0 | 0.00 | 0.00 | 0.00 | 86 | 1024.2 |
| 20260502221548 | 7 | 58 | 0.0 | 0.0 | 0.00 | 0.00 | 0.00 | 86 | 1024.2 |
| 20260502220055 | 7 | 58 | 0.0 | 0.0 | 0.00 | 0.00 | 0.00 | 85 | 1024.1 |
| 20260502214607 | 8 | 58 | 0.0 | 3.2 | 0.00 | 0.00 | 0.00 | 84 | 1024.0 |
| 20260502213103 | 8 | 58 | 0.0 | 0.0 | 0.00 | 0.00 | 0.00 | 82 | 1023.9 |
| 20260502211550 | 9 | 58 | 0.0 | 4.8 | 0.00 | 0.00 | 0.00 | 80 | 1023.9 |
| 20260502210044 | 8 | 134 | 1.6 | 4.8 | 0.00 | 0.00 | 0.00 | 80 | 1024.0 |
| 20260502204543 | 10 | 133 | 0.0 | 3.2 | 0.00 | 0.00 | 0.00 | 79 | 1023.9 |
| 20260502203106 | 9 | 133 | 0.0 | 3.2 | 0.00 | 0.00 | 0.00 | 79 | 1023.9 |
| 20260502201544 | 10 | 133 | 0.0 | 4.8 | 0.00 | 0.00 | 0.00 | 75 | 1023.8 |
| 20260502200047 | 10 | 133 | 0.0 | 4.8 | 0.00 | 0.00 | 0.00 | 76 | 1023.8 |
| 20260502194540 | 11 | 24 | 0.0 | 3.2 | 0.00 | 0.00 | 0.00 | 76 | 1023.7 |
| 20260502193040 | 11 | 24 | 0.0 | 3.2 | 0.00 | 0.00 | 0.00 | 74 | 1023.5 |
| 20260502191544 | 12 | 24 | 1.6 | 4.8 | 0.00 | 0.00 | 0.00 | 72 | 1023.3 |
| 20260502190039 | 12 | 25 | 0.0 | 3.2 | 0.00 | 0.00 | 0.00 | 68 | 1023.1 |
| 20260502184538 | 13 | 24 | 0.0 | 3.2 | 0.00 | 0.00 | 0.00 | 67 | 1023.0 |